Погода в Чернояре

Россия / Пензенская область     53°48′11″N   42°14′57″E
темп.,
°C
ветер,
м/с
пор.,
м/с
влажн.,
%
обл.,
%
осадки,
мм/ч
давл.,
гПа
погр.,
м
7 мая, пт
пт700:00+13ю51365100 0.0 1010590
03:00+12ю41170100 0.1 1010448
06:00+11юз2883100 0.3 1010488
09:00+7сз3894100 3.4 1013581
12:00+9сз2480100 2.3 1015702
15:00+13з255225 2.4 10151702
18:00+13сз24525 0.0 1015255
21:00+7зюз00723 0.0 101710
8 мая, сб
сб800:00+6ююв2279100 0.0 101741
03:00+5ююв268993 0.0 1017114
06:00+7юв388474 0.0 1016221
09:00+12юв5860100 0.0 1015825
12:00+15ююв684498 0.0 10121276
15:00+17ю61249100 0.0 10091486
18:00+13ююз71481100 0.4 10081361
21:00+11ююз41194100 0.9 1008757
9 мая, вс
вс900:00+10зюз4996100 2.8 1009574
03:00+9зюз4994100 4.8 1011613
06:00+7з3793100 0.1 1013665
09:00+8сз5678100 0.3 1015971
12:00+9сз4563100 0.1 10171141
15:00+9ссз4666100 0.1 10181261
18:00+8ссз3774100 0.0 1020788
21:00+6ссз397899 0.0 1022389
10 мая, пн
пн1000:00+4ссз388771 0.0 1024225
03:00+2ссз28935 0.0 1026179
06:00+4с310823 0.0 1028317
09:00+11ссв58515 0.0 10281122
12:00+14ссв46405 0.0 10291740
15:00+15ссв46375 0.0 10281924
18:00+14ссв37515 0.0 1029842
21:00+7св25780 0.0 103081
11 мая, вт
вт1100:00+6св28830 0.0 1031143
03:00+5св28852 0.0 1031146
06:00+7св310763 0.0 1032304
09:00+13всв58483 0.0 1032843
12:00+17всв57385 0.0 10311110
15:00+18всв57395 0.0 10291174
18:00+16в48573 0.0 1029883
21:00+9всв3108487 0.0 1029202